Weather History for Ankara, Turkey

Change the Weather History Date:

Wednesday, February 6, 2013

  Actual Average Record
Temperature  
Mean Temperature 43 °F -  
Max Temperature 56 °F 43 °F 56 °F (2013)
Min Temperature 30 °F 22 °F -2 °F (1997)
Degree Days  
Heating Degree Days 22    
Moisture  
Dew Point 32 °F    
Average Humidity 69    
Maximum Humidity 100    
Minimum Humidity 28    
Precipitation  
Precipitation 0.00 in - - ()
Sea Level Pressure  
Sea Level Pressure 29.85 in    
Wind  
Wind Speed 3 mph ()    
Max Wind Speed 8 mph    
Max Gust Speed -    
Visibility 6.9 miles    
Events Rain    
Averages and records for this station are not official NWS values.
T = Trace of Precipitation, MM = Missing Value Source: Averaged Metar Reports

Daily Weather History Graph

Daily Weather History Graph

Search for Another Location

Airport:

Trip Planner

Search our weather history database for the weather conditions in past years. The results will help you decide how hot, cold, wet, or windy it might be!

Date:

Astronomy

Feb. 06, 2013 Rise Set
Actual Time 6:51 AM EET 5:12 PM EET
Civil Twilight 6:23 AM EET 5:41 PM EET
Nautical Twilight 5:51 AM EET 6:13 PM EET
Astronomical Twilight 5:19 AM EET 6:45 PM EET
Moon 3:15 AM EET (2/6) 1:09 PM EET (2/6)
Length of Visible Light 11h 17m
Length of Day
10h 21m
Waning Crescent, 20% of the Moon is Illuminated
Feb 6
Waning Crescent
Feb 10
New
Feb 17
First Quarter
Feb 25
Full
Mar 4
Last Quarter

Hourly Weather History & Observations

Time (EET) Temp. Windchill Dew Point Humidity Pressure Visibility Wind Dir Wind Speed Gust Speed Precip Events Conditions
12:20 AM 33.8 °F - 28.4 °F 81% 29.92 in - Variable 1.2 mph - N/A   Clear
12:50 AM 35.6 °F - 30.2 °F 81% 29.92 in - SSE 2.3 mph - N/A   Clear
1:20 AM 33.8 °F - 30.2 °F 87% 29.92 in - Variable 2.3 mph - N/A   Clear
1:50 AM 33.8 °F - 30.2 °F 87% 29.89 in - Variable 2.3 mph - N/A   Clear
2:00 AM 34 °F - 29 °F 75% 29.93 in 12 mi 2.3 mph - -  
2:20 AM 35.6 °F - 30.2 °F 81% 29.89 in - Variable 2.3 mph - N/A   Clear
2:50 AM 32.0 °F - 28.4 °F 87% 29.89 in - West 1.2 mph - N/A   Clear
3:20 AM 32.0 °F - 30.2 °F 93% 29.89 in - Variable 1.2 mph - N/A   Clear
3:50 AM 33.8 °F - 30.2 °F 87% 29.89 in - Variable 1.2 mph - N/A   Clear
4:20 AM 30.2 °F 26.7 °F 28.4 °F 93% 29.89 in - NW 3.5 mph - N/A   Clear
4:50 AM 30.2 °F - 30.2 °F 100% 29.89 in - Variable 2.3 mph - N/A   Clear
5:20 AM 32.0 °F - 30.2 °F 93% 29.86 in - North 2.3 mph - N/A   Clear
5:50 AM 30.2 °F - 30.2 °F 100% 29.86 in - Variable 1.2 mph - N/A   Clear
6:20 AM 32.0 °F - 30.2 °F 93% 29.86 in - Variable 2.3 mph - N/A   Clear
6:50 AM 33.8 °F - 30.2 °F 87% 29.86 in - Variable 2.3 mph - N/A   Clear
7:20 AM 33.8 °F - 30.2 °F 87% 29.89 in - Variable 2.3 mph - N/A   Clear
7:50 AM 32.0 °F - 30.2 °F 93% 29.89 in - Variable 2.3 mph - N/A   Clear
8:00 AM 32 °F - 30 °F 88% 29.96 in 12 mi 2.3 mph - -   Partly Cloudy
8:20 AM 35.6 °F 32.8 °F 32.0 °F 87% 29.89 in - Variable 3.5 mph - N/A   Clear
8:50 AM 37.4 °F - 32.0 °F 81% 29.89 in - Variable 1.2 mph - N/A   Clear
9:20 AM 37.4 °F - 32.0 °F 81% 29.89 in - Variable 2.3 mph - N/A   Clear
9:50 AM 42.8 °F - 33.8 °F 70% 29.89 in - South 2.3 mph - N/A   Clear
10:20 AM 46.4 °F - 33.8 °F 62% 29.89 in - Variable 2.3 mph - N/A   Clear
10:50 AM 48.2 °F - 33.8 °F 58% 29.86 in - Variable 2.3 mph - N/A   Clear
11:20 AM 50.0 °F - 32.0 °F 50% 29.86 in - NNW 4.6 mph - N/A   Clear
11:50 AM 51.8 °F - 32.0 °F 47% 29.83 in 6.2 mi Variable 2.3 mph - N/A   Mostly Cloudy
12:20 PM 53.6 °F - 32.0 °F 44% 29.80 in 6.2 mi Variable 4.6 mph - N/A   Mostly Cloudy
12:50 PM 53.6 °F - 32.0 °F 44% 29.80 in 6.2 mi Variable 3.5 mph - N/A   Mostly Cloudy
1:20 PM 53.6 °F - 32.0 °F 44% 29.77 in 6.2 mi SW 4.6 mph - N/A   Mostly Cloudy
1:50 PM 55.4 °F - 32.0 °F 41% 29.77 in 6.2 mi SSW 8.1 mph - N/A   Mostly Cloudy
2:00 PM 55 °F - 31 °F 28% 29.81 in 12 mi SSW 8.1 mph - -   Scattered Clouds
2:20 PM 57.2 °F - 32.0 °F 38% 29.77 in 6.2 mi Variable 2.3 mph - N/A   Mostly Cloudy
2:50 PM 55.4 °F - 32.0 °F 41% 29.80 in 6.2 mi SSW 6.9 mph - N/A   Mostly Cloudy
3:20 PM 55.4 °F - 32.0 °F 41% 29.77 in 6.2 mi WSW 4.6 mph - N/A   Mostly Cloudy
3:50 PM 55.4 °F - 33.8 °F 44% 29.77 in 6.2 mi WSW 3.5 mph - N/A   Mostly Cloudy
4:20 PM 53.6 °F - 33.8 °F 47% 29.77 in 6.2 mi SSW 1.2 mph - N/A   Mostly Cloudy
4:50 PM 53.6 °F - 33.8 °F 47% 29.77 in 6.2 mi SSE 3.5 mph - N/A   Mostly Cloudy
5:20 PM 51.8 °F - 35.6 °F 54% 29.77 in 6.2 mi SSE 6.9 mph - N/A   Mostly Cloudy
5:50 PM 51.8 °F - 35.6 °F 54% 29.80 in 6.2 mi SE 4.6 mph - N/A   Mostly Cloudy
6:20 PM 50.0 °F - 33.8 °F 54% 29.80 in - Variable 2.3 mph - N/A   Clear
6:50 PM 48.2 °F - 35.6 °F 62% 29.80 in - NNW 6.9 mph - N/A   Clear
7:20 PM 48.2 °F - 35.6 °F 62% 29.80 in - NNE 6.9 mph - N/A   Clear
7:50 PM 46.4 °F 45.2 °F 33.8 °F 62% 29.83 in - NNE 3.5 mph - N/A   Clear
8:00 PM 46 °F - 34 °F 52% 29.89 in 6 mi NNE 3.5 mph - -   Partly Cloudy
8:20 PM 44.6 °F 41.4 °F 33.8 °F 66% 29.83 in - NE 5.8 mph - N/A   Clear
8:50 PM 44.6 °F 42.2 °F 35.6 °F 71% 29.83 in 6.2 mi NE 4.6 mph - N/A Rain Light Rain Showers
9:20 PM 42.8 °F 41.1 °F 35.6 °F 76% 29.83 in 6.2 mi NNW 3.5 mph - N/A Rain Light Rain Showers
9:50 PM 42.8 °F 39.3 °F 35.6 °F 76% 29.83 in 6.2 mi NNE 5.8 mph - N/A   Mostly Cloudy
10:20 PM 41.0 °F 36.4 °F 35.6 °F 81% 29.83 in 6.2 mi NNE 6.9 mph - N/A   Mostly Cloudy
10:50 PM 41.0 °F 38.0 °F 33.8 °F 76% 29.83 in 6.2 mi NNE 4.6 mph - N/A   Mostly Cloudy
11:20 PM 41.0 °F 38.0 °F 33.8 °F 76% 29.83 in 6.2 mi NE 4.6 mph - N/A   Scattered Clouds
11:50 PM 39.2 °F 37.0 °F 33.8 °F 81% 29.83 in 6.2 mi NNE 3.5 mph - N/A   Scattered Clouds